Flag for Montserrat Weather past 2 weeks in Brades, Montserrat

Now
79 °F

Scattered clouds.


Feels Like: 81 °F
Forecast: N/A
Wind: 14 mph from East

Location: Vc Bird International Antigua Airport

Current Time: Mar 6, 2015 at 6:30:48 PM

Latest Report: Mar 6, 2015 at 6:00 PM


Visibility: N/A

Pressure: 30.07 "Hg

Humidity: 65%

Dew point: 66 °F

Location of BradesLocation

Historic Weather in Brades — Graph

°F

Brades temperature yesterday

Maximum temperature yesterday: 82 °F (at 11:00 AM)
Minimum temperature yesterday: 73 °F (at 7:08 AM)
Average temperature yesterday: 78 °F

Past Weeks' High & Low Weather Summary

 TemperatureHumidityPressure
High82 °F (Feb 20, 11:00 AM)100% (Feb 22, 5:00 AM)30.12 "Hg (Feb 22, 5:00 AM)
Low32 °F (Feb 22, 5:00 AM)51% (Mar 5, 11:00 AM)29.95 "Hg (Feb 19, 5:00 PM)
Average78 °F69%30.04 "Hg
* Reported Feb 19 5:00 PM — Mar 6 5:00 PM, Brades, Weather by CustomWeather, © 2015

Note: Actual official high and low records may vary slightly from our data, if they occured in-between our weather recording intervals... More about our weather records

Advertising

Brades weather history for previous 24 hours

 ConditionsComfort  
Time TempWeatherWind HumidityBarometerVisibility
5:00 PM
Fri, Mar 6
79 °FScattered clouds.14 mph65%30.04 "HgN/A
4:00 PM81 °FScattered clouds.15 mph58%30.04 "HgN/A
3:00 PM81 °FPassing clouds.16 mph58%30.04 "HgN/A
2:00 PM82 °FPassing clouds.16 mph55%30.07 "HgN/A
1:00 PM82 °FPassing clouds.16 mph51%30.04 "HgN/A
12:00 PM81 °FPassing clouds.17 mph66%30.12 "HgN/A
11:00 AM81 °FScattered clouds.17 mph62%30.12 "HgN/A
10:00 AM81 °FPassing clouds.16 mph62%30.12 "HgN/A
9:00 AM79 °FScattered clouds.16 mph65%30.12 "HgN/A
8:00 AM75 °FBroken clouds.18 mph69%30.09 "HgN/A
7:00 AM73 °FSprinkles. Partly sunny.13 mph78%30.09 "HgN/A
6:00 AM77 °FPassing clouds.14 mph65%30.07 "HgN/A
5:00 AM77 °FPassing clouds.15 mph65%30.04 "HgN/A
4:00 AM77 °FPassing clouds.14 mph65%30.04 "HgN/A
3:00 AM77 °FPassing clouds.16 mph61%30.04 "HgN/A
2:00 AM77 °FPassing clouds.16 mph61%30.07 "HgN/A
12:00 AM77 °FPassing clouds.14 mph69%30.09 "HgN/A
11:00 PM
Thu, Mar 5
77 °FPassing clouds.16 mph69%30.09 "HgN/A
10:00 PM77 °FPassing clouds.16 mph65%30.09 "HgN/A
9:00 PM77 °FPassing clouds.17 mph65%30.09 "HgN/A
8:00 PM77 °FPassing clouds.15 mph65%30.07 "HgN/A
7:00 PM77 °FPassing clouds.16 mph65%30.07 "HgN/A
6:00 PM79 °FScattered clouds.16 mph65%30.04 "HgN/A
Weather by CustomWeather, © 2015

See weather overviewHow to use our weather pages